Flag for U.S.A. Weather past 2 weeks in Paradise, California, U.S.A.

Now
63 °F

Partly sunny.


Feels Like: 63 °F
Forecast: 58 / 81 °F
Wind: 6 mph from North

Location: Chico Municipal

Current Time: May 28, 2015 at 7:56:39 AM

Latest Report: May 28, 2015 at 6:50 AM


Visibility: 40 mi

Pressure: 29.99 "Hg

Humidity: 64%

Dew point: 50 °F

Location of ParadiseLocation

Historic Weather in Paradise — Graph

°F

Paradise temperature yesterday

Maximum temperature yesterday: 84 °F (at 6:55 PM)
Minimum temperature yesterday: 57 °F (at 4:15 AM)
Average temperature yesterday: 69 °F

Past Weeks' High & Low Weather Summary

 TemperatureHumidityPressure
High84 °F (May 24, 1:50 PM)88% (May 19, 5:55 AM)30.08 "Hg (May 19, 5:55 AM)
Low50 °F (May 14, 5:35 AM)17% (May 13, 4:49 PM)29.71 "Hg (May 14, 5:50 PM)
Average65 °F57%29.92 "Hg
* Reported May 13 6:15 AM — May 28 6:50 AM, Paradise, Weather by CustomWeather, © 2015

Note: Actual official high and low records may vary slightly from our data, if they occured in-between our weather recording intervals... More about our weather records

Advertising

Paradise weather history for previous 24 hours

 ConditionsComfort  
Time TempWeatherWind HumidityBarometerVisibility
6:50 AM
Thu, May 28
63 °FPartly sunny.6 mph64%29.99 "Hg40 mi
6:35 AM63 °FClear.No wind68%29.98 "Hg10 mi
5:55 AM61 °FClear.No wind72%29.98 "Hg10 mi
5:35 AM63 °FClear.No wind68%29.98 "Hg10 mi
5:15 AM63 °FClear.No wind68%29.97 "Hg10 mi
4:55 AM63 °FClear.No wind77%29.97 "Hg10 mi
4:35 AM63 °FClear.No wind77%29.96 "Hg10 mi
4:15 AM63 °FPassing clouds.No wind73%29.96 "Hg10 mi
3:55 AM63 °FPassing clouds.No wind64%29.95 "Hg10 mi
3:35 AM61 °FPassing clouds.No wind68%29.95 "Hg10 mi
3:15 AM64 °FPassing clouds.No wind60%29.95 "Hg10 mi
2:55 AM64 °FPassing clouds.No wind68%29.95 "Hg10 mi
2:35 AM66 °FPassing clouds.No wind60%29.95 "Hg10 mi
2:15 AM66 °FClear.No wind52%29.94 "Hg10 mi
1:55 AM66 °FClear.No wind52%29.94 "Hg10 mi
1:35 AM68 °FClear.No wind49%29.94 "Hg10 mi
1:15 AM68 °FClear.7 mph53%29.94 "Hg10 mi
12:55 AM72 °FPassing clouds.8 mph47%29.94 "Hg10 mi
12:15 AM70 °FClear.9 mph50%29.94 "Hg10 mi
11:55 PM
Wed, May 27
70 °FClear.7 mph50%29.94 "Hg10 mi
11:35 PM72 °FClear.6 mph47%29.93 "Hg10 mi
11:15 PM73 °FClear.No wind41%29.93 "Hg10 mi
10:55 PM75 °FClear.No wind39%29.92 "Hg10 mi
10:35 PM75 °FClear.No wind39%29.93 "Hg10 mi
10:15 PM77 °FClear.No wind36%29.92 "Hg10 mi
9:55 PM77 °FClear.No wind36%29.91 "Hg10 mi
9:35 PM77 °FClear.No wind36%29.91 "Hg10 mi
9:15 PM77 °FSunny.No wind39%29.90 "Hg10 mi
8:35 PM79 °FSunny.No wind34%29.89 "Hg10 mi
8:15 PM81 °FSunny.7 mph28%29.89 "Hg10 mi
7:55 PM82 °FSunny.8 mph26%29.88 "Hg10 mi
7:35 PM82 °FSunny.7 mph26%29.88 "Hg10 mi
7:15 PM82 °FSunny.7 mph26%29.88 "Hg10 mi
6:55 PM84 °FSunny.9 mph27%29.87 "Hg10 mi
5:47 PM82 °FPassing clouds.9 mph40%29.88 "Hg40 mi
3:47 PM82 °FPassing clouds.10 mph30%29.90 "Hg40 mi
1:50 PM79 °FPassing clouds.6 mph37%29.93 "Hg40 mi
12:50 PM75 °FPassing clouds.6 mph41%29.95 "Hg40 mi
11:58 AM73 °FPassing clouds.6 mph47%29.96 "Hg40 mi
10:58 AM72 °FPassing clouds.6 mph47%29.97 "Hg40 mi
9:50 AM66 °FSunny.6 mph56%29.98 "Hg40 mi
8:55 AM64 °FSunny.6 mph56%29.99 "Hg40 mi
7:55 AM63 °FSunny.6 mph59%29.99 "Hg40 mi
Weather by CustomWeather, © 2015

See weather overviewHow to use our weather pages